Location: Auckland
(36.8670°S, 174.7670°E)
Time: 02:46:21
(UTC+12:00)

NOSS 2-1 (E) - Pass Details

Date: 29 April 2019
Orbit: 471 x 1733 km, 63.3° (Epoch: 14 May)

Event Time Altitude Azimuth Distance (km) Brightness Sun altitude
Rises 18:22:21 0° 243° (WSW) 5,011 9.1 -9.4°
Reaches altitude 10° 18:28:46 10° 216° (SW) 3,886 8.0 -10.6°
Maximum altitude 18:32:19 12° 195° (SSW) 3,584 7.5 -11.3°
Drops below altitude 10° 18:35:41 10° 173° (S) 3,614 7.3 -12.0°
Enters shadow 18:40:49 - 145° (SE) 4,241 7.4 -13.0°
